DW2659 Weather Reports


time (UTC)temp
F
wind
direction
speed
knots
gust
knots
rain 1hr
in
rain 24hr
in
rain mn
in
humidity
%
barometer
mb
20260902160903 91 232 1.7 5.2 0.00 0.00 0.00 61 1019.8
20260902160404 90 333 2.6 5.2 0.00 0.00 0.00 62 1019.8
20260902154903 92 5 0.9 2.6 0.00 0.00 0.00 60 1020.1
20260902153404 90 31 0.9 4.3 0.00 0.00 0.00 61 1020.1
20260902152905 90 246 2.6 4.3 0.00 0.00 0.00 60 1020.1
20260902152404 90 130 1.7 4.3 0.00 0.00 0.00 65 1020.1
20260902151903 89 132 1.7 4.3 0.00 0.00 0.00 64 1020.1
20260902150904 89 17 0.9 2.6 0.00 0.00 0.00 67 1020.1
20260902145905 88 355 0.9 1.7 0.00 0.00 0.00 68 1020.1
20260902145403 88 70 0.9 2.6 0.00 0.00 0.00 67 1020.1
20260902144904 88 67 0.9 2.6 0.00 0.00 0.00 69 1020.1
20260902143905 86 138 0.9 2.6 0.00 0.00 0.00 69 1020.1
20260902143404 86 111 0.9 2.6 0.00 0.00 0.00 70 1020.1
20260902142904 86 72 0.0 0.9 0.00 0.00 0.00 70 1020.2
20260902142405 85 138 1.7 2.6 0.00 0.00 0.00 71 1020.2
20260902141904 85 113 0.9 1.7 0.00 0.00 0.00 71 1020.2
20260902141403 84 113 0.9 2.6 0.00 0.00 0.00 72 1020.2
20260902140905 84 113 0.0 0.9 0.00 0.00 0.00 72 1020.2
20260902140404 84 113 0.0 1.7 0.00 0.00 0.00 72 1020.2
20260902135405 83 113 0.0 0.9 0.00 0.00 0.00 74 1020.1
20260902134403 83 141 1.7 2.6 0.00 0.00 0.00 75 1020.2
20260902133904 82 67 0.9 1.7 0.00 0.00 0.00 77 1020.2
20260902133405 81 67 0.0 1.7 0.00 0.00 0.00 78 1020.2
20260902132903 80 67 0.0 0.9 0.00 0.00 0.00 80 1020.2
20260902132404 79 67 0.9 1.7 0.00 0.00 0.00 82 1020.2
20260902131904 78 67 0.9 1.7 0.00 0.00 0.00 83 1020.1
20260902131404 77 69 0.0 0.9 0.00 0.00 0.00 86 1020.1
20260902130904 76 69 0.9 1.7 0.00 0.00 0.00 88 1020.1
20260902130405 75 69 0.9 1.7 0.00 0.00 0.00 91 1020.1
20260902125404 73 355 0.0 0.9 0.00 0.00 0.00 93 1020.0
20260902124906 73 355 0.0 0.0 0.00 0.00 0.00 93 1020.0
20260902124404 72 355 0.0 0.0 0.00 0.00 0.00 94 1020.0
20260902123904 72 355 0.0 0.0 0.00 0.00 0.00 94 1020.0
20260902123405 72 355 0.0 0.0 0.00 0.00 0.00 94 1020.0
20260902122904 71 355 0.0 0.0 0.00 0.00 0.00 94 1019.9
20260902122404 71 355 0.0 0.0 0.00 0.00 0.00 94 1019.4
20260902121904 71 355 0.0 0.0 0.00 0.00 0.00 94 1019.4
20260902121404 71 355 0.0 0.0 0.00 0.00 0.00 94 1019.4
20260902120402 70 355 0.0 0.0 0.00 0.00 0.00 93 1019.4
20260902115904 70 355 0.0 0.0 0.00 0.00 0.00 93 1019.4
20260902115402 70 355 0.0 0.0 0.00 0.00 0.00 93 1019.4
20260902114903 70 355 0.0 0.0 0.00 0.00 0.00 93 1019.4
20260902113903 70 355 0.0 0.0 0.00 0.00 0.00 93 1019.3
20260902113402 70 355 0.0 0.0 0.00 0.00 0.00 93 1019.3
20260902112403 70 355 0.0 0.0 0.00 0.00 0.00 93 1019.2
20260902111902 70 355 0.0 0.0 0.00 0.00 0.00 93 1019.1
20260902111402 70 355 0.0 0.0 0.00 0.00 0.00 93 1018.9
20260902110904 70 355 0.0 0.0 0.00 0.00 0.00 92 1018.9
20260902110403 70 355 0.0 0.0 0.00 0.00 0.00 92 1018.9
20260902105902 70 355 0.0 0.0 0.00 0.00 0.00 92 1018.9
20260902105404 70 355 0.0 0.0 0.00 0.00 0.00 92 1018.9
20260902104903 70 355 0.0 0.0 0.00 0.00 0.00 92 1018.9
20260902104402 70 355 0.0 0.0 0.00 0.00 0.00 92 1018.6
20260902103904 70 355 0.0 0.0 0.00 0.00 0.00 92 1018.6
20260902103403 70 355 0.0 0.0 0.00 0.00 0.00 92 1018.6
20260902102902 70 355 0.0 0.0 0.00 0.00 0.00 92 1018.6
20260902102404 70 355 0.0 0.9 0.00 0.00 0.00 92 1018.6
20260902100904 70 355 0.0 0.9 0.00 0.00 0.00 92 1018.6
20260902100402 70 355 0.0 0.9 0.00 0.00 0.00 92 1018.5
20260902095404 71 355 0.0 0.0 0.00 0.00 0.00 92 1018.2
20260902094902 71 355 0.0 0.0 0.00 0.00 0.00 92 1018.2
20260902094402 71 355 0.0 0.0 0.00 0.00 0.00 92 1018.2
20260902093904 71 355 0.0 0.0 0.00 0.00 0.00 92 1018.2
20260902093403 71 355 0.0 0.0 0.00 0.00 0.00 92 1018.2
20260902092903 71 355 0.0 0.0 0.00 0.00 0.00 92 1018.2
20260902091902 71 355 0.0 0.0 0.00 0.00 0.00 92 1018.2
20260902091402 71 355 0.0 0.0 0.00 0.00 0.00 91 1018.2
20260902090904 71 355 0.0 0.0 0.00 0.00 0.00 92 1018.2
20260902090403 71 355 0.0 0.0 0.00 0.00 0.00 91 1018.2
20260902085903 71 355 0.0 0.0 0.00 0.00 0.00 91 1018.1
20260902085403 71 355 0.0 0.0 0.00 0.00 0.00 91 1018.1
20260902084902 71 355 0.0 0.0 0.00 0.00 0.00 91 1018.1
20260902084402 71 355 0.0 0.0 0.00 0.00 0.00 91 1018.0
20260902083903 71 355 0.0 0.0 0.00 0.00 0.00 91 1018.0
20260902083403 71 355 0.0 0.0 0.00 0.00 0.00 91 1017.9
20260902082902 71 355 0.0 0.0 0.00 0.00 0.00 91 1017.8
20260902082404 71 355 0.0 0.0 0.00 0.00 0.00 91 1017.8
20260902081403 71 355 0.0 0.0 0.00 0.00 0.00 91 1017.7
20260902080403 71 355 0.0 0.0 0.00 0.00 0.00 91 1017.7
20260902075902 71 355 0.0 0.0 0.00 0.00 0.00 91 1017.8
20260902075404 72 355 0.0 0.9 0.00 0.00 0.00 91 1017.8
20260902074903 72 355 0.0 0.0 0.00 0.00 0.00 91 1017.8
20260902074402 72 355 0.0 0.9 0.00 0.00 0.00 91 1017.8
20260902073904 72 355 0.0 0.9 0.00 0.00 0.00 90 1017.8
20260902072903 72 355 0.0 0.0 0.00 0.00 0.00 90 1017.8
20260902072404 72 355 0.0 0.9 0.00 0.00 0.00 90 1017.8
20260902071902 72 355 0.9 0.9 0.00 0.00 0.00 90 1017.8
20260902071402 72 355 0.0 0.0 0.00 0.00 0.00 90 1017.9
20260902070904 72 355 0.0 0.0 0.00 0.00 0.00 90 1017.9
20260902065903 72 355 0.0 0.9 0.00 0.00 0.00 90 1017.8
20260902065404 72 355 0.0 0.9 0.00 0.00 0.00 90 1017.8
20260902064903 72 355 0.0 0.0 0.00 0.00 0.00 90 1017.8
20260902063904 72 355 0.0 0.0 0.00 0.00 0.00 89 1017.9
20260902063403 72 355 0.0 0.0 0.00 0.00 0.00 89 1017.9
20260902062902 73 355 0.0 0.0 0.00 0.00 0.00 89 1018.0
20260902062405 73 355 0.0 0.0 0.00 0.00 0.00 89 1018.0
20260902061902 73 355 0.0 0.0 0.00 0.00 0.00 90 1018.0
20260902061402 73 355 0.0 0.0 0.00 0.00 0.00 89 1018.0
20260902060904 73 355 0.0 0.9 0.00 0.00 0.00 89 1018.0
20260902060402 73 355 0.9 0.9 0.00 0.00 0.00 89 1018.0
20260902055903 73 355 0.0 0.0 0.00 0.00 0.00 89 1018.1
20260902055405 73 355 0.0 0.0 0.00 0.00 0.00 89 1018.1
20260902054902 73 355 0.0 0.0 0.00 0.00 0.00 89 1018.1
20260902054402 73 355 0.0 0.0 0.00 0.00 0.00 89 1018.1
20260902053904 73 355 0.0 0.0 0.00 0.00 0.00 88 1018.1
20260902053402 73 355 0.0 0.0 0.00 0.00 0.00 88 1018.1
20260902052903 73 355 0.0 0.0 0.00 0.00 0.00 88 1018.0
20260902051904 73 355 0.0 0.0 0.00 0.00 0.00 88 1018.0
20260902051402 73 355 0.0 0.0 0.00 0.00 0.00 88 1018.0
20260902050903 73 355 0.0 0.0 0.00 0.00 0.00 88 1018.0
20260902050403 73 355 0.0 0.0 0.00 0.00 0.00 88 1018.0
20260902045903 73 355 0.0 0.0 0.00 0.00 0.00 87 1018.0
20260902045403 73 355 0.0 0.0 0.00 0.00 0.00 87 1018.0
20260902044904 74 355 0.0 0.0 0.00 0.00 0.00 87 1018.0
20260902044402 74 355 0.0 0.9 0.00 0.00 0.00 87 1018.1
20260902043902 74 355 0.0 0.9 0.00 0.00 0.00 87 1018.1
20260902043404 74 355 0.0 0.0 0.00 0.00 0.00 87 1018.1
20260902042903 74 355 0.0 0.0 0.00 0.00 0.00 87 1018.2
20260902042403 74 355 0.0 0.0 0.00 0.00 0.00 86 1018.2
20260902041903 74 355 0.0 0.0 0.00 0.00 0.00 86 1018.2
20260902041402 74 355 0.0 0.0 0.00 0.00 0.00 86 1018.3
20260902040902 74 355 0.0 0.0 0.00 0.00 0.00 86 1018.3
20260902040404 74 355 0.0 0.0 0.00 0.00 0.00 86 1018.3
20260902035903 74 355 0.0 0.0 0.00 0.00 0.00 85 1018.3
20260902035403 74 355 0.0 0.0 0.00 0.00 0.00 85 1018.3
20260902034904 74 355 0.0 0.0 0.00 0.00 0.00 85 1018.3
20260902034402 74 355 0.0 0.0 0.00 0.00 0.00 85 1018.2
20260902033902 75 355 0.0 0.0 0.00 0.00 0.00 85 1018.2
20260902033404 75 355 0.0 0.0 0.00 0.00 0.00 84 1018.2
20260902032902 75 355 0.0 0.0 0.00 0.00 0.00 84 1018.2
20260902032403 75 355 0.0 0.0 0.00 0.00 0.00 84 1018.2
20260902031904 75 355 0.0 0.0 0.00 0.00 0.00 84 1018.2
20260902030903 75 355 0.0 0.0 0.00 0.00 0.00 83 1018.2
20260902030404 75 355 0.0 0.0 0.00 0.00 0.00 83 1018.2
20260902025903 75 355 0.0 0.0 0.00 0.00 0.00 83 1018.2
20260902024905 75 355 0.0 0.9 0.00 0.00 0.00 83 1018.2
20260902024402 76 355 0.9 0.9 0.00 0.00 0.00 82 1018.2
20260902023903 76 355 0.0 0.0 0.00 0.00 0.00 82 1018.2
20260902023404 76 355 0.0 0.0 0.00 0.00 0.00 82 1018.0
20260902022903 76 355 0.0 0.9 0.00 0.00 0.00 82 1018.0
20260902022402 76 355 0.0 0.9 0.00 0.00 0.00 81 1018.0
20260902021904 76 355 0.0 0.9 0.00 0.00 0.00 81 1018.0
20260902020903 76 355 0.9 0.9 0.00 0.00 0.00 81 1018.0
20260902020404 77 355 0.0 0.9 0.00 0.00 0.00 80 1018.0
20260902015903 77 355 0.0 0.0 0.00 0.00 0.00 80 1018.1
20260902015403 77 355 0.0 0.0 0.00 0.00 0.00 79 1018.1
20260902014904 77 355 0.0 0.0 0.00 0.00 0.00 79 1018.1
20260902014403 77 355 0.0 0.9 0.00 0.00 0.00 78 1018.0
20260902013903 78 355 0.0 0.0 0.00 0.00 0.00 77 1018.0
20260902013404 78 355 0.0 0.0 0.00 0.00 0.00 76 1018.0
20260902012403 78 355 0.0 0.0 0.00 0.00 0.00 75 1017.7
20260902011904 79 355 0.0 0.0 0.00 0.00 0.00 74 1017.7
20260902011402 79 355 0.0 0.0 0.00 0.00 0.00 73 1017.4
20260902010903 79 355 0.0 0.0 0.00 0.00 0.00 73 1017.4
20260902010404 79 355 0.0 0.0 0.00 0.00 0.00 73 1017.4
20260902005903 79 355 0.0 0.9 0.00 0.00 0.00 73 1017.4
20260902004905 80 355 0.0 0.0 0.00 0.00 0.00 71 1017.4
20260902004403 80 355 0.0 0.9 0.00 0.00 0.00 70 1017.3
20260902003903 80 355 0.9 0.9 0.00 0.00 0.00 70 1017.3
20260902003403 81 355 0.0 0.0 0.00 0.00 0.00 69 1017.3
20260902002903 81 355 0.0 0.0 0.00 0.00 0.00 69 1017.3
20260902002403 81 355 0.0 0.9 0.00 0.00 0.00 69 1017.3
20260902001905 82 355 0.0 0.9 0.00 0.00 0.00 68 1017.3
20260902001403 82 355 0.0 0.0 0.00 0.00 0.00 67 1017.2
20260902000406 83 355 0.9 0.9 0.00 0.00 0.00 66 1017.2
20260901235904 83 355 0.0 0.9 0.00 0.00 0.00 66 1017.4
20260901235403 84 355 0.0 0.0 0.00 0.00 0.00 64 1017.4
20260901234905 84 355 0.0 0.0 0.00 0.00 0.00 64 1017.4
20260901232903 86 355 0.0 0.0 0.00 0.00 0.00 61 1017.6
20260901232403 86 355 0.0 0.0 0.00 0.00 0.00 61 1017.6
20260901231403 87 355 0.0 0.0 0.00 0.00 0.00 61 1017.5
20260901230903 87 355 0.0 0.0 0.00 0.00 0.00 61 1017.5
20260901225903 88 355 0.0 0.0 0.00 0.00 0.00 60 1017.5
20260901225403 88 355 0.0 0.0 0.00 0.00 0.00 61 1017.5
20260901224904 88 355 0.0 0.9 0.00 0.00 0.00 60 1017.5
20260901224403 89 355 0.0 0.9 0.00 0.00 0.00 59 1017.4
20260901223404 90 355 0.0 0.9 0.00 0.00 0.00 57 1017.4
20260901221903 94 355 0.0 0.0 0.00 0.00 0.00 52 1017.4
20260901221404 95 355 0.0 0.0 0.00 0.00 0.00 53 1017.4
20260901220903 95 355 0.0 0.9 0.00 0.00 0.00 52 1017.4
20260901220403 95 355 0.0 0.0 0.00 0.00 0.00 52 1017.4
20260901215905 96 355 0.0 0.0 0.00 0.00 0.00 51 1017.4
20260901215403 96 355 0.0 0.0 0.00 0.00 0.00 50 1017.4
20260901214903 97 355 0.0 0.0 0.00 0.00 0.00 50 1017.4
20260901214404 96 355 0.0 0.0 0.00 0.00 0.00 50 1017.5
20260901213403 96 355 0.0 0.0 0.00 0.00 0.00 50 1017.5
20260901212903 97 355 0.0 0.9 0.00 0.00 0.00 50 1017.5
20260901212404 97 355 0.0 0.9 0.00 0.00 0.00 50 1017.5
20260901211903 97 355 0.0 1.7 0.00 0.00 0.00 48 1017.5
20260901210403 97 355 0.0 0.9 0.00 0.00 0.00 47 1017.5
20260901205903 98 355 0.0 0.9 0.00 0.00 0.00 48 1017.5
20260901205404 98 355 0.0 2.6 0.00 0.00 0.00 49 1017.7
20260901204403 98 328 0.9 1.7 0.00 0.00 0.00 47 1017.7
20260901203904 98 15 0.0 1.7 0.00 0.00 0.00 50 1017.7
20260901203403 97 15 0.0 1.7 0.00 0.00 0.00 50 1017.7
20260901202404 97 15 0.0 0.9 0.00 0.00 0.00 48 1017.9
20260901201904 97 15 0.0 0.9 0.00 0.00 0.00 50 1017.9
20260901201403 96 15 1.7 2.6 0.00 0.00 0.00 49 1018.0
20260901200903 96 9 0.9 2.6 0.00 0.00 0.00 46 1018.0
20260901195904 95 175 0.9 2.6 0.00 0.00 0.00 46 1018.1
20260901195403 95 355 0.0 1.7 0.00 0.00 0.00 49 1018.1
20260901194903 95 355 0.9 1.7 0.00 0.00 0.00 50 1018.1
20260901194405 95 355 0.0 1.7 0.00 0.00 0.00 48 1018.3
20260901193403 96 61 0.9 1.7 0.00 0.00 0.00 48 1018.4
20260901192904 96 42 0.9 2.6 0.00 0.00 0.00 47 1018.5
20260901192403 96 10 0.0 0.9 0.00 0.00 0.00 47 1018.5
20260901191904 95 13 0.9 2.6 0.00 0.00 0.00 48 1018.5
20260901190903 95 33 1.7 4.3 0.00 0.00 0.00 46 1018.7
20260901190403 95 43 0.9 2.6 0.00 0.00 0.00 45 1018.7
20260901185905 96 267 0.0 1.7 0.00 0.00 0.00 47 1018.9
20260901184904 95 355 0.9 2.6 0.00 0.00 0.00 44 1018.9
20260901184405 95 185 0.0 1.7 0.00 0.00 0.00 46 1019.0
20260901183903 94 32 1.7 2.6 0.00 0.00 0.00 48 1019.0
20260901183404 94 38 1.7 2.6 0.00 0.00 0.00 51 1018.9
20260901182404 94 57 0.9 2.6 0.00 0.04 0.00 51 1019.0
20260901181404 93 18 0.9 1.7 0.00 0.04 0.00 51 1019.2
20260901180904 93 74 1.7 4.3 0.00 0.04 0.00 53 1019.2
20260901180403 93 100 0.9 2.6 0.00 0.04 0.00 50 1019.2
20260901175405 94 248 2.6 4.3 0.00 0.04 0.00 48 1019.2
20260901174903 93 17 0.9 2.6 0.00 0.04 0.00 48 1019.2
20260901174404 93 73 0.9 2.6 0.00 0.04 0.00 49 1019.6
20260901173904 93 233 0.9 2.6 0.00 0.04 0.00 48 1019.6
20260901173403 94 327 0.9 2.6 0.00 0.04 0.00 49 1019.6
20260901172903 93 302 0.0 1.7 0.00 0.04 0.00 51 1019.7
20260901171904 93 225 1.7 2.6 0.00 0.04 0.00 52 1019.7
20260901171403 92 236 1.7 4.3 0.00 0.04 0.00 50 1020.0
20260901170904 92 34 0.0 1.7 0.00 0.04 0.00 54 1020.0
20260901170404 92 34 0.9 2.6 0.00 0.04 0.00 52 1020.0
20260901165404 91 82 1.7 2.6 0.00 0.04 0.00 55 1020.0
20260901164905 91 45 1.7 2.6 0.00 0.04 0.00 53 1020.1
20260901164404 91 66 0.0 2.6 0.00 0.04 0.00 55 1020.3
20260901163903 91 53 2.6 2.6 0.00 0.04 0.00 55 1020.3
20260901163405 91 20 0.9 1.7 0.00 0.04 0.00 58 1020.3
20260901162903 91 113 0.9 2.6 0.00 0.04 0.00 55 1021.0
20260901162403 91 92 0.9 1.7 0.00 0.04 0.00 57 1021.0